Weather History for KNFL - February, 2014

Change the Weather History Date:

Sunday, February 16, 2014

  Actual Average Record
Temperature  
Mean Temperature 48 °F -  
Max Temperature 61 °F 52 °F 71 °F (1970)
Min Temperature 32 °F 25 °F 5 °F (1928)
Degree Days  
Heating Degree Days 18    
Moisture  
Dew Point 21 °F    
Average Humidity 37    
Maximum Humidity 66    
Minimum Humidity 12    
Precipitation  
Precipitation 0.00 in - - ()
Sea Level Pressure  
Sea Level Pressure 29.97 in    
Wind  
Wind Speed 10 mph (WNW)    
Max Wind Speed 31 mph    
Max Gust Speed 44 mph    
Visibility 10 miles    
Events      
Averages and records for this station are not official NWS values.
T = Trace of Precipitation, MM = Missing Value Source: NWS Daily Summary

Daily Weather History Graph

Daily Weather History Graph

Search for Another Location

Airport or City:

Trip Planner

Search our weather history database for the weather conditions in past years. The results will help you decide how hot, cold, wet, or windy it might be!

Date:

Astronomy

Feb. 16, 2014 Rise Set
Actual Time 6:45 AM PST 5:32 PM PST
Civil Twilight 6:17 AM PST 6:00 PM PST
Nautical Twilight 5:46 AM PST 6:31 PM PST
Astronomical Twilight 5:15 AM PST 7:02 PM PST
Moon 7:33 PM PST (2/16) 7:18 AM PST (2/16)
Length of Visible Light 11h 42m
Length of Day
10h 47m
Full, 97% of the Moon is Illuminated
Feb 16
Full
Feb 22
Last Quarter
Mar 1
New
Mar 8
First Quarter
Mar 16
Full

Hourly Weather History & Observations

Time (PST) Temp. Windchill Dew Point Humidity Pressure Visibility Wind Dir Wind Speed Gust Speed Precip Events Conditions
12:56 AM 52.0 °F - 28.9 °F 41% 29.84 in 10.0 mi South 11.5 mph - N/A   Clear
1:56 AM 48.9 °F - 30.0 °F 48% 29.81 in 10.0 mi SW 31.1 mph 43.7 mph N/A   Clear
2:56 AM 46.0 °F 41.9 °F 30.0 °F 54% 29.84 in 10.0 mi ENE 8.1 mph - N/A   Clear
3:56 AM 48.0 °F - 30.9 °F 52% 29.83 in 10.0 mi South 5.8 mph - N/A   Partly Cloudy
4:56 AM 48.0 °F - 30.0 °F 50% 29.84 in 10.0 mi SW 18.4 mph - N/A   Clear
5:56 AM 42.1 °F 39.2 °F 30.0 °F 62% 29.88 in 10.0 mi NE 4.6 mph - N/A   Clear
6:56 AM 43.0 °F 38.8 °F 30.0 °F 60% 29.91 in 10.0 mi WNW 6.9 mph - N/A   Clear
7:56 AM 48.9 °F - 30.9 °F 50% 29.95 in 10.0 mi NW 10.4 mph - N/A   Clear
8:19 AM 50.0 °F - 25.0 °F 38% 30.03 in 10.0 mi West 23.0 mph 27.6 mph N/A   Clear
8:56 AM 52.0 °F - 25.0 °F 35% 29.95 in 10.0 mi West 17.3 mph 21.9 mph N/A   Clear
9:56 AM 53.1 °F - 24.1 °F 32% 29.99 in 10.0 mi WNW 9.2 mph 19.6 mph N/A   Clear
10:56 AM 55.0 °F - 16.0 °F 22% 30.02 in 10.0 mi NW 4.6 mph - N/A   Clear
11:01 AM 54.0 °F - 15.1 °F 22% 30.11 in 10.0 mi Calm Calm - N/A   Partly Cloudy
11:56 AM 55.9 °F - 14.0 °F 19% 30.02 in 10.0 mi Calm Calm - N/A   Partly Cloudy
12:56 PM 59.0 °F - 12.0 °F 16% 30.00 in 10.0 mi North 6.9 mph - N/A   Partly Cloudy
1:56 PM 60.1 °F - 10.0 °F 14% 30.00 in 10.0 mi Calm Calm - N/A   Clear
2:56 PM 61.0 °F - 9.0 °F 13% 30.00 in 10.0 mi ENE 4.6 mph - N/A   Clear
3:56 PM 61.0 °F - 8.1 °F 12% 30.00 in 10.0 mi ENE 4.6 mph - N/A   Clear
4:56 PM 60.1 °F - 8.1 °F 13% 30.01 in 10.0 mi Calm Calm - N/A   Partly Cloudy
5:56 PM 48.9 °F - 17.1 °F 28% 30.02 in 10.0 mi NE 8.1 mph - N/A   Partly Cloudy
6:56 PM 46.0 °F 41.4 °F 19.0 °F 34% 30.03 in 10.0 mi NE 9.2 mph - N/A   Clear
7:56 PM 45.0 °F - 18.0 °F 34% 30.04 in 10.0 mi Calm Calm - N/A   Clear
8:56 PM 41.0 °F - 18.0 °F 40% 30.05 in 10.0 mi Calm Calm - N/A   Clear
9:56 PM 34.0 °F - 19.0 °F 54% 30.05 in 10.0 mi Calm Calm - N/A   Clear
10:56 PM 34.0 °F 31.0 °F 19.9 °F 56% 30.04 in 10.0 mi SSW 3.5 mph - N/A   Clear
11:56 PM 32.0 °F 24.8 °F 21.9 °F 66% 30.05 in 10.0 mi SW 8.1 mph - N/A   Clear